When you browse on this site, cookies collect data to enhance your experience and personalize the content and advertising you see.
Visit our Privacy Policy to learn more. By continuing to use the site, you agree to this use of cookies and data.
  • în România
  • Lista ţărilor
  • Pe 7 zile
  • Temperatura apei
  • Hartă satelitară
  • Meteo pe hartă
  • Widget-uri
  • user-avatar
    Intrare

    Meteo pe oră la Chełmża

    Astăzi, 23 Martie, Sâmbătă

    Timp Temperatura Precipitaţii Vânt Presiune Umiditate
    00:00 +6°C° 0 mm 2 m/s 765 mmHg 76%
    01:00 +5°C° 0 mm 2 m/s 765 mmHg 79%
    02:00 +5°C° 0 mm 2 m/s 764 mmHg 82%
    03:00 +4°C° 0 mm 3 m/s 764 mmHg 85%
    04:00 +4°C° 0 mm 3 m/s 763 mmHg 88%
    05:00 +4°C° 0 mm 3 m/s 763 mmHg 88%
    06:00 +4°C° 0 mm 3 m/s 763 mmHg 88%
    07:00 +5°C° 0 mm 3 m/s 763 mmHg 88%
    08:00 +7°C° 0 mm 4 m/s 762 mmHg 82%
    09:00 +8°C° 0 mm 4 m/s 762 mmHg 76%
    10:00 +11°C° 0 mm 4 m/s 762 mmHg 70%
    11:00 +13°C° 0 mm 4 m/s 761 mmHg 67%
    12:00 +14°C° 0 mm 4 m/s 761 mmHg 63%
    13:00 +17°C° 0 mm 4 m/s 760 mmHg 60%
    14:00 +17°C° 0 mm 4 m/s 760 mmHg 60%
    15:00 +18°C° 0 mm 4 m/s 760 mmHg 60%
    16:00 +18°C° 0 mm 4 m/s 759 mmHg 60%
    17:00 +15°C° 0.1 mm 4 m/s 760 mmHg 66%
    18:00 +14°C° 0.1 mm 5 m/s 760 mmHg 72%
    19:00 +12°C° 0.1 mm 5 m/s 760 mmHg 78%
    20:00 +10°C° 0 mm 4 m/s 760 mmHg 79%
    21:00 +8°C° 0 mm 4 m/s 761 mmHg 80%
    22:00 +7°C° 0 mm 4 m/s 761 mmHg 81%
    23:00 +6°C° 0 mm 4 m/s 761 mmHg 79%

    Mâine, 24 Martie, Duminică

    Timp Temperatura Precipitaţii Vânt Presiune Umiditate
    00:00 +5°C° 0 mm 3 m/s 762 mmHg 76%
    01:00 +5°C° 0 mm 3 m/s 762 mmHg 73%
    02:00 +4°C° 0 mm 3 m/s 762 mmHg 72%
    03:00 +3°C° 0 mm 3 m/s 762 mmHg 70%
    04:00 +4°C° 0 mm 2 m/s 762 mmHg 68%
    05:00 +3°C° 0 mm 3 m/s 762 mmHg 69%
    06:00 +3°C° 0 mm 3 m/s 762 mmHg 69%
    07:00 +3°C° 0 mm 3 m/s 762 mmHg 69%
    08:00 +4°C° 0 mm 3 m/s 762 mmHg 63%
    09:00 +5°C° 0 mm 3 m/s 762 mmHg 57%
    10:00 +8°C° 0 mm 2 m/s 762 mmHg 51%
    11:00 +8°C° 0 mm 3 m/s 762 mmHg 47%
    12:00 +9°C° 0 mm 3 m/s 761 mmHg 43%
    13:00 +10°C° 0 mm 3 m/s 761 mmHg 39%
    14:00 +10°C° 0 mm 3 m/s 760 mmHg 39%
    15:00 +10°C° 0 mm 3 m/s 759 mmHg 40%
    16:00 +10°C° 0 mm 3 m/s 759 mmHg 41%
    17:00 +9°C° 0 mm 3 m/s 759 mmHg 46%
    18:00 +7°C° 0 mm 3 m/s 759 mmHg 50%
    19:00 +5°C° 0 mm 3 m/s 758 mmHg 55%
    20:00 +6°C° 0 mm 2 m/s 758 mmHg 58%
    21:00 +5°C° 0 mm 2 m/s 758 mmHg 60%
    22:00 +4°C° 0 mm 2 m/s 758 mmHg 62%
    23:00 +4°C° 0 mm 2 m/s 757 mmHg 64%

    Poimâine, 25 Martie, Luni

    Timp Temperatura Precipitaţii Vânt Presiune Umiditate
    00:00 +3°C° 0 mm 2 m/s 756 mmHg 66%
    01:00 +3°C° 0 mm 2 m/s 756 mmHg 67%
    02:00 +2°C° 0 mm 2 m/s 755 mmHg 68%
    03:00 +2°C° 0 mm 2 m/s 755 mmHg 69%
    04:00 +1°C° 0 mm 3 m/s 754 mmHg 70%
    05:00 +1°C° 0 mm 3 m/s 754 mmHg 70%
    06:00 +1°C° 0 mm 4 m/s 753 mmHg 70%
    07:00 +1°C° 0 mm 5 m/s 752 mmHg 69%
    08:00 +2°C° 0.1 mm 5 m/s 752 mmHg 66%
    09:00 +3°C° 0.1 mm 6 m/s 751 mmHg 62%
    10:00 +4°C° 0.1 mm 7 m/s 751 mmHg 58%
    11:00 +4°C° 0.8 mm 6 m/s 751 mmHg 63%
    12:00 +3°C° 0.8 mm 6 m/s 751 mmHg 69%
    13:00 +3°C° 0.8 mm 5 m/s 750 mmHg 74%
    14:00 +3°C° 0.4 mm 5 m/s 750 mmHg 71%
    15:00 +3°C° 0.4 mm 5 m/s 750 mmHg 68%
    16:00 +5°C° 0.4 mm 5 m/s 751 mmHg 65%
    17:00 +4°C° 0.4 mm 4 m/s 751 mmHg 70%
    18:00 +3°C° 0.4 mm 4 m/s 751 mmHg 75%
    19:00 +2°C° 0.4 mm 3 m/s 752 mmHg 80%
    20:00 0°C° 0.1 mm 4 m/s 753 mmHg 82%
    21:00 0°C° 0.1 mm 4 m/s 753 mmHg 85%
    22:00 -1°C° 0.1 mm 4 m/s 754 mmHg 87%
    23:00 0°C° 0 mm 5 m/s 755 mmHg 87%

    26 Martie, Marţi

    Timp Temperatura Precipitaţii Vânt Presiune Umiditate
    00:00 0°C° 0 mm 5 m/s 756 mmHg 86%
    01:00 -1°C° 0 mm 6 m/s 757 mmHg 85%
    02:00 -1°C° 0 mm 6 m/s 757 mmHg 83%
    03:00 -1°C° 0 mm 5 m/s 758 mmHg 82%
    04:00 -2°C° 0 mm 5 m/s 759 mmHg 80%
    05:00 -2°C° 0 mm 5 m/s 759 mmHg 77%
    06:00 -2°C° 0 mm 4 m/s 760 mmHg 74%
    07:00 -2°C° 0 mm 4 m/s 761 mmHg 71%
    08:00 0°C° 0 mm 4 m/s 761 mmHg 66%
    09:00 +1°C° 0 mm 4 m/s 761 mmHg 61%
    10:00 +3°C° 0 mm 5 m/s 761 mmHg 56%
    11:00 +5°C° 0 mm 5 m/s 761 mmHg 54%
    12:00 +6°C° 0 mm 5 m/s 760 mmHg 52%
    13:00 +7°C° 0 mm 6 m/s 760 mmHg 50%
    14:00 +5°C° 0 mm 6 m/s 760 mmHg 55%
    15:00 +5°C° 0 mm 6 m/s 759 mmHg 60%
    16:00 +4°C° 0 mm 6 m/s 759 mmHg 65%
    17:00 +3°C° 0 mm 5 m/s 759 mmHg 69%
    18:00 +2°C° 0 mm 5 m/s 759 mmHg 73%
    19:00 +3°C° 0 mm 4 m/s 759 mmHg 77%
    20:00 +2°C° 0 mm 3 m/s 760 mmHg 82%
    21:00 +1°C° 0 mm 3 m/s 760 mmHg 86%
    22:00 +1°C° 0 mm 3 m/s 760 mmHg 90%
    23:00 +1°C° 0 mm 2 m/s 760 mmHg 92%

    27 Martie, Miercuri

    Timp Temperatura Precipitaţii Vânt Presiune Umiditate
    00:00 +1°C° 0 mm 2 m/s 760 mmHg 93%
    01:00 -1°C° 0 mm 2 m/s 760 mmHg 94%
    02:00 +1°C° 0 mm 2 m/s 760 mmHg 94%
    03:00 +1°C° 0 mm 2 m/s 760 mmHg 94%
    04:00 +1°C° 0 mm 2 m/s 760 mmHg 95%
    05:00 +1°C° 0 mm 3 m/s 760 mmHg 93%
    06:00 +2°C° 0 mm 3 m/s 760 mmHg 92%
    07:00 +3°C° 0 mm 3 m/s 760 mmHg 91%
    08:00 +4°C° 0 mm 4 m/s 760 mmHg 85%
    09:00 +5°C° 0 mm 4 m/s 760 mmHg 79%
    10:00 +6°C° 0 mm 4 m/s 760 mmHg 73%
    11:00 +6°C° 0 mm 4 m/s 760 mmHg 71%
    12:00 +7°C° 0 mm 5 m/s 760 mmHg 69%
    13:00 +7°C° 0 mm 5 m/s 760 mmHg 68%
    14:00 +7°C° 0.5 mm 4 m/s 760 mmHg 72%
    15:00 +6°C° 0.5 mm 4 m/s 760 mmHg 76%
    16:00 +6°C° 0.5 mm 4 m/s 760 mmHg 80%
    17:00 +5°C° 0.1 mm 3 m/s 760 mmHg 84%
    18:00 +5°C° 0.1 mm 3 m/s 760 mmHg 87%
    19:00 +6°C° 0.1 mm 2 m/s 760 mmHg 91%
    20:00 +6°C° 0 mm 2 m/s 761 mmHg 92%
    21:00 +5°C° 0 mm 2 m/s 761 mmHg 94%
    22:00 +6°C° 0 mm 1 m/s 762 mmHg 95%
    23:00 +6°C° 0 mm 1 m/s 762 mmHg 95%

    28 Martie, Joi

    Timp Temperatura Precipitaţii Vânt Presiune Umiditate
    00:00 +4°C° 0 mm 2 m/s 763 mmHg 96%
    01:00 +4°C° 0 mm 2 m/s 763 mmHg 96%
    02:00 +4°C° 0 mm 2 m/s 763 mmHg 95%
    03:00 +4°C° 0 mm 2 m/s 764 mmHg 94%
    04:00 +4°C° 0 mm 2 m/s 764 mmHg 94%
    05:00 +4°C° 0 mm 2 m/s 765 mmHg 92%
    06:00 +5°C° 0 mm 2 m/s 765 mmHg 91%
    07:00 +5°C° 0 mm 2 m/s 766 mmHg 90%
    08:00 +6°C° 0 mm 2 m/s 766 mmHg 85%
    09:00 +6°C° 0 mm 2 m/s 767 mmHg 80%
    10:00 +7°C° 0 mm 2 m/s 767 mmHg 75%
    11:00 +7°C° 0 mm 2 m/s 767 mmHg 73%
    12:00 +7°C° 0 mm 2 m/s 768 mmHg 72%
    13:00 +8°C° 0 mm 2 m/s 768 mmHg 70%
    14:00 +9°C° 0 mm 1 m/s 768 mmHg 70%
    15:00 +9°C° 0 mm 1 m/s 768 mmHg 69%
    16:00 +9°C° 0 mm 1 m/s 768 mmHg 68%
    17:00 +8°C° 0 mm 1 m/s 768 mmHg 73%
    18:00 +7°C° 0 mm 1 m/s 768 mmHg 77%
    19:00 +6°C° 0 mm 1 m/s 768 mmHg 82%
    20:00 +6°C° 0 mm 1 m/s 768 mmHg 84%
    21:00 +5°C° 0 mm 1 m/s 768 mmHg 86%
    22:00 +4°C° 0 mm 2 m/s 768 mmHg 88%
    23:00 +4°C° 0 mm 2 m/s 768 mmHg 89%
    Arată mai mult